Regional Weather Roundup
Issued by NWS

Home | Current Version | Previous Version | Text Only | Print | Product List | Glossary On
Versions: 1 2 3 4 5 6 7 8 9 10 11 12 13 14 15 16 17 18 19 20 21 22 23 24 25 26 27 28 29 30 31 32 33 34 35 36 37 38 39 40 41 42 43 44 45 46 47 48 49 50
000
ASUS45 KABQ 260110
RWRNM
NEW MEXICO REGIONAL WEATHER ROUNDUP
NATIONAL WEATHER SERVICE ALBUQUERQUE NM
700 PM MDT THU MAY 25 2017

NOTE: "FAIR" MEANS FEW OR NO CLOUDS BELOW 12,000 FEET AGL WITH NO
       SIGNIFICANT WEATHER OR OBSTRUCTIONS TO VISION.

      THIS PRODUCT IS RELEASED AS TWO VERSIONS.  ONE VERSION NEAR
      THE TOP OF THE HOUR CONTAINING PRELIMINARY DATA FROM ALBUQUERQUE
      AND OTHER STATIONS.  A FINAL VERSION WITH ADDITIONAL DATA IS
      ISSUED ABOUT 10 MINUTES AFTER THE HOUR.

NMZ501-503-504-510>518-260200-
NORTHWEST PLATEAU/NORTHCENTRAL MOUNTAINS

CITY           SKY/WX    TMP DP  RH WIND       PRES   REMARKS
FARMINGTON     FAIR      76  23  14 W15G25    29.71R
LOS ALAMOS     FAIR      73  13  10 SW28G38   29.86R
SANTA FE       FAIR      78  11   8 W17G29    29.78R
TAOS           FAIR      72  14  11 W21       29.83S
ANGEL FIRE     FAIR      63  15  15 W12G28    29.91R

$$
NMZ402-403-502-505>509-260200-
WESTCENTRAL MOUNTAINS/SOUTHWEST MOUNTAINS

CITY           SKY/WX    TMP DP  RH WIND       PRES   REMARKS
GALLUP         FAIR      75  14  10 W24G37    29.85R
GRANTS         FAIR      75  13   9 SW18G30   29.88R
SILVER CITY    FAIR      78  15   9 W23G35    29.91R

$$
NMZ407-409-411-412-260200-
SOUTHERN DESERTS

CITY           SKY/WX    TMP DP  RH WIND       PRES   REMARKS
DEMING         FAIR      86  13   6 W17G25    29.81R
LAS CRUCES     FAIR      87  16   7 W20G32    29.82R
HOLLOMAN AFB   FAIR      89  15   6 W17       29.80R
T OR C         LGT RAIN  85  11   6 W20G28    29.80S

$$
NMZ519>523-260200-
CENTRAL VALLEYS/CENTRAL HIGHLANDS

CITY           SKY/WX    TMP DP  RH WIND       PRES   REMARKS
ALBUQUERQUE    PTSUNNY   83  -1   4 W25G40    29.77R
DOUBLE EAGLE   PTSUNNY   81  10   7 SW24G36   29.80S
MORIARTY ARPT  FAIR      78  11   8 W22G32    29.84R
CLINES CORNERS FAIR      73   7   7 W31G40    29.87R
BELEN          FAIR      83   8   6 W25G35    29.78R
SOCORRO        FAIR      84  11   6 W17       29.78R

$$
NMZ524>526-539-540-260200-
SOUTHCENTRAL MOUNTAINS

CITY           SKY/WX    TMP DP  RH WIND       PRES   REMARKS
RUIDOSO        FAIR      72  16  12 SW18G29   29.93S

$$
NMZ527>531-260200-
NORTHEAST HIGHLANDS/NORTHEAST PLAINS

CITY           SKY/WX    TMP DP  RH WIND       PRES   REMARKS
LAS VEGAS      FAIR      75   6   7 SW26G36   29.81R
RATON          FAIR      77  14   9 W21G31    29.71R
CLAYTON        FAIR      81  26  13 SW9       29.62S

$$
NMZ532>537-260200-
EASTCENTRAL PLAINS

CITY           SKY/WX    TMP DP  RH WIND       PRES   REMARKS
SANTA ROSA     FAIR      85  22  10 W14       29.68R
TUCUMCARI      FAIR      86  26  11 W14       29.59S
CANNON AFB     FAIR      87  15   7 W23G33    29.68R
CLOVIS AIRPORT FAIR      88  25  10 W20G31    29.67R

$$
NMZ028-029-538-260200-
SOUTHEAST PLAINS

CITY           SKY/WX    TMP DP  RH WIND       PRES   REMARKS
ROSWELL        FAIR      93  18   6 W23G33    29.67R
ARTESIA        FAIR      91  25   9 SW29      29.69R
CARLSBAD       FAIR      94  25   8 W21G32    29.68R


$$




USA.gov is the U.S. government's official web portal to all federal, state and local government web resources and services.